Flag for Germany Weather past 2 weeks in Waldkraiburg, Bavaria, Germany

Now
55 °F

Cool.


Feels Like: 55 °F
Forecast: 53 / 74 °F
Wind: 3 mph from East

Location: Erding Airport

Current Time: Sep 19, 2014 at 4:41:43 AM

Latest Report: Sep 19, 2014 at 3:20 AM


Visibility: 0 mi

Pressure: 29.95 "Hg

Humidity: 100%

Dew point: 55 °F

Location of WaldkraiburgLocation

Historic Weather in Waldkraiburg — Graph

°F

Waldkraiburg temperature yesterday

Maximum temperature yesterday: 75 °F (at 3:20 PM)
Minimum temperature yesterday: 59 °F (at 9:20 AM)
Average temperature yesterday: 68 °F

Past Weeks' High & Low Weather Summary

 TemperatureHumidityPressure
High79 °F (Sep 8, 4:20 PM)100% (Sep 4, 3:20 AM)30.12 "Hg (Sep 4, 3:20 AM)
Low50 °F (Sep 11, 11:20 PM)48% (Sep 8, 4:20 PM)29.89 "Hg (Sep 6, 5:20 PM)
Average61 °F87%30.01 "Hg
* Reported Sep 4 3:20 AM — Sep 19 3:20 AM, Waldkraiburg, Weather by CustomWeather, © 2014

Note: Actual official high and low records may vary slightly from our data, if they occured in-between our weather recording intervals... More about our weather records

Advertising

Waldkraiburg weather history for previous 24 hours

 ConditionsComfort  
Time TempWeatherWind HumidityBarometerVisibility
3:20 AM
Sep 19
55 °FCool.3 mph100%29.95 "Hg0 mi
2:20 AM59 °FCool.2 mph100%29.95 "Hg3 mi
1:20 AM61 °FCool.2 mph94%29.98 "Hg4 mi
12:20 AM61 °FCool.5 mph100%29.98 "Hg3 mi
11:20 PM
Sep 18
64 °FMild.6 mph83%29.98 "Hg4 mi
10:20 PM63 °FMild.2 mph88%29.98 "Hg4 mi
9:20 PM61 °FCool.No wind88%29.95 "Hg5 mi
8:20 PM64 °FMild.2 mph78%29.95 "Hg6 mi
7:20 PM66 °FMild.1 mph73%29.92 "Hg6 mi
6:20 PM70 °FMild.5 mph69%29.92 "HgN/A
5:20 PM73 °FMild.7 mph61%29.92 "HgN/A
4:20 PM75 °FPartly sunny.6 mph57%29.92 "HgN/A
3:20 PM75 °FScattered clouds.5 mph57%29.92 "HgN/A
2:20 PM73 °FPartly sunny.3 mph61%29.92 "HgN/A
1:20 PM72 °FScattered clouds.3 mph61%29.92 "HgN/A
12:20 PM72 °FScattered clouds.2 mph61%29.95 "HgN/A
11:20 AM68 °FPassing clouds.3 mph69%29.95 "HgN/A
10:20 AM64 °FPassing clouds.3 mph78%29.95 "HgN/A
9:20 AM59 °FPassing clouds.3 mph88%29.95 "HgN/A
Weather by CustomWeather, © 2014

See weather overviewHow to use our weather pages